Wind_Speed
2 3 3 5 4 4 5 6 7 7 7 6 4 5 4 3 3 2 1 1 2 4 5 4 4 6 7 7 5 5 5 4 4 4 3 4 4 4 4 5 6 5 4 3 2 2 3 3 4 5 7 8 7 7 7 7 7 7 6 6 5 4 4 4 5 7 9 10 12 13 15 15 15 15 16 17 18 19 20 21 22 22 23 24 24 24
1 2 3 3 3 3 4 5 7 7 8 7 5 4 4 3 3 2 2 0 2 3 5 4 3 4 7 6 4 4 4 4 4 3 4 5 5 5 5 5 4 3 2 2 2 2 2 2 4 6 8 8 7 7 7 8 8 7 7 6 5 5 4 5 7 8 10 12 13 14 15 15 15 16 17 17 18 19 19 20 22 23 24 24 25 25
1 1 1 2 2 2 3 5 6 7 8 8 5 4 4 4 3 3 2 2 3 3 5 4 3 5 7 6 4 4 4 5 5 5 5 6 6 5 5 4 2 1 1 1 1 1 1 3 4 6 9 9 8 8 8 8 7 7 6 5 5 5 6 7 8 10 11 13 14 15 15 15 16 16 17 17 18 19 20 21 22 23 24 24 25 25
0 0 1 1 2 2 2 4 6 7 7 7 6 5 4 4 4 5 5 5 5 4 5 6 5 5 7 6 4 5 6 6 6 6 6 6 5 5 4 2 1 1 0 0 1 1 2 4 5 7 9 9 9 8 7 7 6 6 6 5 5 6 7 9 10 11 12 14 14 15 15 16 16 17 17 17 18 19 21 21 22 23 23 24 25 25
2 3 3 2 2 1 1 3 5 6 6 7 6 5 4 4 4 6 7 7 7 7 7 8 8 7 6 6 5 5 6 6 5 5 5 5 5 4 3 2 1 1 1 1 0 2 3 4 5 6 7 9 8 7 5 5 5 6 6 6 7 7 9 10 11 12 13 14 14 15 15 16 17 17 17 18 19 20 21 21 22 22 23 23 24 24
3 5 5 4 3 1 1 3 4 5 5 5 6 5 4 4 5 6 7 7 7 8 8 8 9 9 6 5 5 5 5 5 5 5 4 4 4 3 3 2 2 1 1 1 1 3 4 4 3 4 6 7 7 6 5 5 6 6 6 7 7 8 9 10 11 12 13 13 14 15 16 16 16 16 17 18 19 19 20 21 21 22 22 23 24 25
4 6 6 5 3 1 1 2 3 3 3 4 5 4 4 3 4 5 6 6 7 8 8 8 8 8 6 5 5 5 5 4 4 4 3 2 2 2 1 1 1 1 2 2 3 4 5 4 3 3 4 6 7 7 6 6 6 6 6 7 7 8 9 10 11 12 13 14 15 15 16 16 16 16 17 17 18 19 19 20 21 22 23 24 25 25
4 5 5 4 3 1 1 2 2 2 2 2 3 3 3 3 3 4 5 5 6 6 6 6 6 5 4 4 3 3 4 3 3 2 2 1 1 0 1 1 2 2 3 4 4 6 6 5 5 4 4 6 7 7 7 6 6 6 6 6 7 8 9 10 11 12 14 15 15 15 15 15 15 16 16 17 18 18 20 21 22 23 24 24 25 25
4 4 3 2 2 1 1 3 3 3 3 2 2 1 2 2 3 3 4 4 4 3 3 3 3 3 2 1 1 1 2 3 2 1 0 0 1 1 2 2 2 3 4 5 5 7 7 7 6 5 4 6 7 7 7 6 5 5 6 7 8 8 9 10 12 13 15 15 15 15 14 14 14 15 16 16 17 19 20 21 22 22 23 24 25 25
3 4 3 2 2 1 3 4 4 3 3 3 1 1 1 1 2 2 3 3 3 2 1 0 1 2 1 2 3 4 3 3 3 2 2 2 2 2 3 3 3 3 5 6 6 6 7 7 6 5 5 5 6 6 6 5 5 6 7 7 7 8 9 11 13 14 15 15 15 13 13 13 13 14 15 16 17 19 19 20 21 21 22 23 24 24
2 3 3 2 2 2 3 5 5 4 3 3 2 1 1 2 2 2 1 2 2 2 0 0 1 1 1 2 3 4 4 4 3 3 3 4 4 4 4 4 3 3 5 6 5 6 7 7 6 5 4 5 5 5 5 4 5 6 6 6 7 8 10 12 13 14 15 14 13 13 12 12 13 13 14 15 16 17 18 19 20 20 21 22 23 23
2 2 3 2 1 2 3 4 5 4 3 3 2 1 2 3 3 2 1 2 3 2 1 1 1 1 1 2 3 4 4 5 4 4 5 4 5 5 5 4 3 3 5 6 5 5 7 7 6 5 4 5 5 4 3 4 5 5 5 6 7 9 11 12 13 14 14 13 13 12 12 12 13 13 14 15 16 17 18 19 20 21 21 22 23 23
2 2 1 2 2 2 2 3 4 4 3 3 1 1 2 4 4 4 3 2 2 1 2 3 2 3 2 3 3 4 4 5 6 6 6 5 4 5 5 4 3 4 5 5 5 5 6 7 6 5 4 4 4 3 3 4 4 4 5 7 9 10 11 12 13 13 13 12 12 12 12 12 13 13 14 15 16 18 19 21 22 22 23 24 23 23
1 1 1 2 2 2 2 2 3 3 3 3 1 1 2 3 3 3 3 3 3 2 2 3 3 3 3 3 4 4 5 5 5 6 6 5 5 5 5 3 3 4 5 5 5 6 7 7 6 4 4 4 3 2 3 4 3 4 6 8 10 11 11 12 12 12 12 11 11 12 12 13 13 13 15 16 18 19 21 22 23 24 25 25 24 24
2 2 2 3 2 2 2 2 2 2 2 1 1 2 2 2 2 1 1 2 3 2 3 3 3 3 3 3 3 4 5 5 5 5 5 5 5 5 4 3 2 3 4 4 5 6 7 7 5 4 4 3 2 2 3 3 3 5 7 9 10 11 10 11 11 10 10 10 11 11 12 13 14 15 16 17 19 21 22 24 25 26 26 25 25 24
1 2 2 3 3 2 1 1 2 2 1 0 1 1 2 3 2 1 1 2 2 2 3 3 3 4 5 5 4 5 6 6 6 5 5 5 5 5 4 3 2 3 3 3 4 5 5 5 4 4 3 2 2 2 2 3 4 6 8 9 10 10 9 9 9 9 9 10 11 12 13 14 15 16 17 19 21 22 24 25 26 27 26 25 24 23
1 2 2 2 2 2 1 1 1 2 2 1 1 1 1 3 3 2 1 2 2 2 4 4 4 5 6 6 5 6 7 6 6 6 6 6 5 4 3 2 2 2 3 3 3 3 4 4 3 3 2 2 2 2 2 4 5 6 8 9 9 9 8 7 7 8 9 10 11 13 14 15 16 17 18 20 23 24 25 26 27 27 26 25 24 22
2 3 2 2 2 2 2 2 1 2 2 2 3 3 2 2 3 3 2 2 2 3 4 4 5 6 7 8 7 6 7 7 7 8 7 6 5 3 2 1 2 2 3 3 3 3 3 3 3 2 2 2 2 1 3 5 5 6 8 8 8 8 7 6 7 8 10 11 12 13 14 15 17 18 20 22 23 25 25 26 26 26 25 24 23 22
3 3 2 1 2 2 3 3 1 1 2 2 4 4 4 2 1 2 3 2 2 3 3 4 6 7 8 10 9 8 8 8 8 9 8 7 5 3 2 1 1 1 3 4 4 3 3 3 3 2 2 2 2 2 3 5 5 6 7 7 7 7 6 7 8 9 11 12 13 14 15 16 17 18 20 22 23 24 25 25 25 25 25 24 23 22
3 4 3 1 2 3 3 3 2 1 2 3 3 4 4 4 3 3 4 3 3 3 3 4 6 8 9 10 11 10 9 8 9 9 8 7 6 5 4 2 1 1 2 3 4 4 4 3 3 3 3 2 2 2 4 5 5 6 6 6 6 7 7 8 9 10 11 12 13 15 16 17 17 18 20 21 22 23 24 24 25 25 25 24 23 22
3 4 4 3 3 4 3 2 2 2 3 3 4 4 4 5 4 4 4 4 4 4 3 3 6 9 10 10 11 11 10 10 9 9 9 8 6 6 5 4 3 3 3 3 4 5 4 3 4 4 3 2 2 3 4 5 5 5 5 5 6 7 8 8 9 10 11 12 14 15 16 17 17 18 20 21 22 23 24 24 25 25 25 24 23 22
3 4 5 4 5 5 4 3 3 3 3 4 4 4 4 4 4 4 5 6 5 5 5 4 7 10 10 10 11 11 11 11 10 10 10 9 7 6 5 4 4 4 4 4 5 5 5 5 5 4 3 2 2 3 4 4 4 4 5 5 6 7 8 8 9 10 11 13 14 15 15 16 17 18 19 21 22 23 24 24 25 25 25 24 23 23
4 4 5 5 5 6 6 4 4 4 4 4 5 5 4 4 4 4 5 6 6 6 5 4 7 10 10 10 12 11 11 11 10 10 10 9 8 8 7 5 5 5 5 5 5 6 6 5 5 4 2 2 3 3 4 4 3 4 5 5 6 7 7 8 9 11 12 13 14 14 15 16 17 18 19 21 22 23 24 25 25 25 25 24 24 24
5 5 6 6 7 8 7 5 5 6 5 4 5 6 5 5 5 5 6 7 7 6 6 4 6 10 10 10 11 11 11 11 11 11 10 9 9 8 7 7 6 6 6 5 6 6 6 5 4 3 2 2 3 3 3 3 3 4 5 5 6 7 8 9 10 11 12 13 14 14 15 16 17 18 20 21 22 23 24 25 25 26 25 26 26 26
6 6 7 7 7 7 7 6 7 7 5 4 6 6 6 5 6 6 6 7 7 6 6 5 6 10 10 9 10 11 11 10 10 9 9 9 8 7 7 7 6 6 6 6 6 6 6 5 4 2 2 3 3 3 3 3 3 4 4 5 6 7 9 10 10 11 12 13 13 14 15 16 17 19 20 22 23 24 25 25 26 26 26 26 27 26
7 7 7 7 7 7 7 8 8 7 6 5 7 7 6 6 7 7 6 6 7 6 5 6 7 10 10 9 10 10 9 8 7 7 7 7 7 5 5 6 6 6 6 6 6 6 6 4 3 2 2 3 3 3 3 3 3 4 5 6 7 8 9 10 11 12 12 12 13 14 15 16 18 19 21 22 23 24 25 25 26 26 26 27 27 27
9 9 8 8 8 8 8 8 8 8 8 7 8 8 8 9 8 7 6 7 7 6 6 7 7 8 9 9 9 8 8 7 5 5 5 5 4 4 5 6 6 6 6 6 6 6 5 4 3 3 4 3 3 3 4 4 4 5 5 6 7 8 9 10 11 12 12 12 13 14 15 16 18 19 21 22 23 24 25 25 26 26 27 27 27 27
9 10 10 9 9 9 8 8 8 9 8 8 9 9 9 9 8 7 7 7 6 6 7 7 7 7 8 8 7 7 7 6 4 2 3 3 4 4 5 6 6 6 6 5 5 5 4 4 4 4 4 3 3 3 4 5 6 6 6 7 8 9 10 11 11 11 12 12 13 14 15 16 18 20 21 22 23 24 25 25 26 27 27 28 28 29
9 9 9 8 8 8 8 8 8 8 8 8 9 9 9 9 7 6 7 7 6 6 6 7 6 5 6 6 6 6 6 5 3 1 1 3 4 5 5 5 6 6 5 5 5 5 5 5 5 4 4 4 4 4 5 6 6 7 7 8 9 10 11 11 11 11 11 12 13 14 15 16 18 20 21 22 23 24 25 25 26 27 28 28 29 30
8 7 6 7 7 6 6 6 6 6 7 8 8 9 8 7 5 5 6 6 5 4 4 4 4 4 5 6 6 6 4 3 2 1 2 3 4 5 5 5 5 5 4 4 4 5 5 5 5 5 4 4 5 5 6 7 7 7 8 9 10 10 11 11 11 11 11 12 13 14 15 17 19 20 21 22 23 23 25 26 27 27 28 29 30 31
7 5 5 6 6 5 5 5 5 6 6 7 7 6 6 5 5 5 5 4 3 2 2 2 3 4 4 5 5 5 4 2 1 1 2 2 3 4 4 4 4 4 4 4 4 4 5 5 5 5 5 6 6 6 7 7 7 8 8 9 10 11 11 11 11 11 11 12 13 14 15 17 19 20 21 22 22 23 25 26 27 27 28 29 31 31
5 4 4 5 4 3 4 4 5 5 5 5 4 4 4 4 4 4 3 1 1 1 2 2 3 4 4 5 5 4 3 2 1 1 1 2 3 3 3 3 3 4 4 4 5 5 5 6 6 6 7 7 7 7 7 8 8 8 9 10 10 11 11 11 11 11 11 12 13 14 15 17 18 20 21 21 22 23 25 25 26 27 29 30 31 32
4 4 4 3 2 2 3 4 4 4 4 4 3 3 4 4 3 2 1 1 1 2 2 2 3 4 5 4 4 3 3 2 1 0 1 1 2 3 3 4 4 4 5 5 5 6 6 6 7 7 7 7 7 8 8 8 9 9 10 10 10 11 11 11 11 11 11 12 13 14 15 17 18 19 20 21 22 23 24 25 26 27 29 30 31 32
3 3 2 2 1 1 2 3 4 4 4 4 3 3 3 3 2 1 1 2 2 2 3 3 4 5 5 5 4 3 2 2 1 0 1 2 2 3 4 5 5 5 6 6 6 6 6 7 7 8 8 8 8 8 9 9 10 10 11 11 10 11 11 11 11 11 12 12 13 14 15 17 18 19 20 21 22 23 24 25 26 27 29 30 31 32
2 2 1 1 0 1 1 2 3 3 4 4 3 3 3 2 1 2 2 2 2 2 3 4 5 5 5 4 3 2 2 1 1 2 2 2 3 4 4 5 6 6 6 6 7 6 6 7 8 8 8 8 8 8 8 9 10 11 11 11 11 11 11 11 11 11 12 13 13 14 15 17 18 19 20 21 22 23 24 25 26 27 28 29 31 33
3 2 1 1 1 1 1 1 0 2 3 3 3 3 2 1 1 2 1 2 2 2 3 4 5 6 5 4 3 2 1 1 2 2 2 3 3 4 4 5 5 6 6 6 7 7 7 8 9 9 9 9 9 9 9 10 11 11 11 11 11 12 11 11 11 12 12 13 14 15 16 17 18 19 20 21 22 23 23 24 25 27 28 29 31 33
4 2 1 1 0 1 1 1 1 2 2 1 1 2 2 1 1 1 1 1 2 2 3 4 5 5 5 4 4 3 2 1 2 3 3 4 4 4 5 5 6 6 7 7 8 8 9 9 9 10 10 11 10 10 11 12 12 11 11 12 12 12 12 11 11 12 12 13 14 15 16 17 18 19 20 21 22 23 23 24 25 26 28 29 31 33
5 4 3 3 3 3 3 3 2 1 1 1 1 1 1 1 1 1 1 1 1 2 3 3 3 4 4 5 5 4 4 3 2 3 4 5 5 5 6 6 7 7 8 8 9 9 9 10 10 11 12 12 12 12 13 13 12 12 13 13 13 13 12 11 12 12 13 13 14 15 16 17 19 19 20 21 22 23 23 24 25 26 27 29 31 33
7 6 5 6 6 5 5 5 6 6 4 2 2 1 2 2 1 0 0 0 1 1 1 2 2 2 4 5 5 5 5 5 4 3 3 4 5 6 7 7 8 8 8 9 10 10 10 11 11 12 13 13 13 13 13 13 12 13 14 14 14 13 12 12 12 13 13 14 15 16 17 18 19 19 20 22 22 23 23 24 25 26 27 29 30 32
8 7 7 7 6 6 6 6 7 9 8 6 4 4 3 3 3 2 2 1 1 1 1 1 1 2 3 4 5 5 5 5 5 4 3 3 4 6 7 8 9 9 9 9 10 11 12 12 13 14 14 14 14 13 13 13 14 15 16 15 14 13 12 12 13 13 14 14 15 16 17 18 19 19 20 22 23 23 23 24 25 26 27 28 30 32
8 8 7 7 6 6 7 6 7 9 10 9 9 7 6 6 6 6 5 5 4 4 4 3 3 2 2 3 4 4 4 5 5 6 5 5 5 5 7 8 9 9 9 10 10 11 12 13 14 14 15 15 14 13 14 15 16 17 17 15 14 12 12 13 13 14 14 15 16 16 17 18 19 19 21 22 23 23 23 24 24 25 26 28 29 31
9 8 8 8 7 7 7 7 7 8 9 10 11 10 10 10 10 9 9 8 8 8 7 7 6 5 4 4 4 4 4 5 5 6 7 7 7 6 7 7 8 9 9 10 10 11 12 12 13 14 15 14 14 14 15 17 18 18 17 15 13 12 12 13 14 15 15 16 16 17 18 19 19 20 21 22 23 23 23 23 24 25 26 28 29 31
9 9 9 9 9 9 8 8 8 8 8 9 9 10 11 11 12 12 12 12 12 12 11 10 9 9 8 7 7 6 6 6 6 6 7 8 8 8 8 8 8 9 10 10 11 11 12 13 14 15 15 15 15 16 17 18 19 18 17 15 13 13 13 14 15 16 16 16 17 18 19 19 19 20 21 22 23 23 23 23 24 25 26 27 29 30
10 10 10 9 9 10 9 10 10 10 9 10 9 9 9 10 11 12 13 13 14 14 14 13 12 11 11 10 9 9 8 8 8 8 8 8 9 9 9 9 9 9 10 10 11 12 13 14 15 16 16 16 17 18 18 19 19 18 16 15 14 14 14 15 15 16 16 17 18 18 19 19 19 20 21 23 23 23 23 24 24 25 26 27 28 30
13 12 11 10 10 11 11 12 12 12 11 11 10 9 8 8 9 10 11 12 13 14 15 15 15 14 14 13 12 11 11 10 10 10 10 10 10 10 10 10 10 10 11 11 11 12 13 14 15 16 17 18 18 19 19 18 18 17 16 15 15 15 15 16 16 16 17 18 18 19 19 19 19 20 22 23 24 24 24 24 24 25 25 27 28 29
15 14 13 13 12 12 13 14 13 12 12 11 10 9 9 9 10 10 10 10 10 10 12 13 14 15 16 15 15 14 14 13 13 12 12 12 13 13 12 12 11 11 12 12 12 12 13 14 15 16 17 18 19 19 18 18 17 16 16 16 16 16 17 17 17 17 17 18 19 19 19 19 20 21 22 23 24 24 24 24 24 25 25 27 28 29
16 16 16 16 16 15 15 15 14 13 13 12 12 12 12 12 11 11 11 10 9 9 9 10 11 12 14 15 16 17 17 17 16 16 16 15 15 15 15 15 14 13 13 12 12 13 13 14 15 16 17 17 18 17 17 16 16 16 16 17 17 17 18 18 18 18 18 19 19 19 19 19 20 21 22 23 24 25 25 25 24 25 25 26 28 29
19 18 18 19 19 17 16 16 16 15 15 15 14 14 14 14 13 12 12 11 11 11 11 11 11 11 12 13 15 16 17 18 18 18 18 18 18 18 18 18 17 16 15 14 14 13 13 13 14 15 16 16 16 16 16 16 16 17 17 18 18 18 19 19 20 19 19 19 19 19 20 20 21 21 22 23 24 25 25 25 25 25 25 26 27 28
21 21 21 21 21 19 19 20 19 18 18 17 16 15 15 15 15 14 13 13 13 13 14 14 14 14 13 13 13 14 15 16 17 18 19 19 19 20 20 20 20 19 19 18 17 15 14 14 14 15 16 16 16 16 16 17 17 18 19 19 19 20 20 20 21 20 20 20 20 20 20 21 22 22 22 23 24 25 26 26 25 25 26 26 27 28
24 23 24 24 23 22 21 22 22 21 20 19 18 18 18 18 17 17 16 15 15 16 17 17 17 17 17 16 15 14 14 14 15 16 17 18 19 20 20 21 21 22 21 21 20 19 18 16 16 16 17 17 17 17 17 18 18 19 19 20 21 21 21 21 21 21 21 20 20 21 21 22 22 23 23 24 24 25 26 26 26 26 26 26 27 28
26 26 26 26 25 24 24 24 24 23 22 21 21 21 20 20 20 19 18 18 18 18 19 19 20 20 20 19 18 17 16 16 15 16 16 16 17 19 20 21 21 22 23 23 22 22 21 20 19 19 19 19 19 19 19 19 19 20 20 21 21 22 22 22 22 22 22 22 22 22 22 22 23 24 24 24 25 25 26 26 26 26 26 27 27 28
Wind_Direction
165 126 75 57 53 54 56 55 58 61 57 54 64 76 77 75 67 47 12 68 114 103 105 113 115 112 106 100 96 99 111 121 123 125 130 136 148 163 163 156 155 157 153 143 134 163 197 207 213 206 194 189 182 174 169 165 164 165 169 175 186 207 232 260 286 303 313 319 322 323 324 326 330 335 337 335 332 330 329 328 328 328 327 326 325 323
146 103 67 58 55 55 66 65 60 64 65 61 62 77 84 73 56 28 3 76 129 113 110 116 134 133 121 115 106 95 100 107 111 121 131 130 135 146 154 160 162 162 159 143 144 174 203 221 221 206 199 197 192 187 182 179 180 182 187 197 210 231 258 282 297 307 314 319 322 324 327 330 334 336 334 332 330 330 330 329 328 327 326 326 325 323
34 44 66 52 34 38 61 68 65 67 69 66 61 70 82 77 68 57 59 104 126 118 115 125 159 162 147 141 139 127 119 115 115 120 129 131 138 148 153 160 160 165 184 148 135 166 246 254 242 219 208 204 200 198 196 193 196 197 204 216 234 259 279 291 300 309 316 320 324 328 330 331 332 331 329 330 331 331 331 330 328 327 326 325 324 323
268 268 191 15 353 5 50 64 67 66 67 67 62 65 76 80 80 77 80 101 116 111 108 115 132 152 152 147 146 141 136 135 132 132 138 141 143 143 139 136 143 174 189 118 120 228 255 251 242 226 216 213 211 205 203 205 210 216 228 241 258 275 285 295 305 314 320 323 327 330 329 328 328 327 328 331 333 333 332 330 328 327 326 324 322 320
217 224 222 259 296 330 37 52 57 54 55 59 61 65 76 84 89 88 87 98 108 104 99 102 107 115 127 132 132 134 135 139 140 137 138 141 139 134 128 131 146 159 155 144 205 254 257 252 241 230 224 223 221 214 209 216 226 234 244 257 270 282 292 303 313 319 322 325 328 329 327 326 326 327 331 334 334 333 331 329 327 325 323 321 320 319
229 228 233 252 271 301 23 32 37 31 33 50 58 61 71 81 86 91 93 99 107 106 101 97 96 97 100 108 112 113 119 124 128 128 131 136 137 134 133 139 154 168 190 209 249 264 266 265 256 242 235 233 233 232 230 233 239 244 253 265 278 289 301 312 318 320 323 326 328 327 326 326 327 330 333 334 333 332 330 328 327 325 324 323 323 322
237 233 237 248 264 291 357 14 19 6 9 35 45 51 60 70 81 89 93 98 105 108 105 98 95 97 98 100 104 105 105 105 106 112 119 123 123 123 128 159 196 230 250 252 260 271 277 284 284 269 250 243 239 239 242 244 248 255 262 273 286 300 312 318 319 322 325 327 326 325 325 325 328 332 334 334 333 333 332 331 330 329 328 327 325 324
243 240 243 249 264 299 357 341 336 323 322 2 27 42 49 51 69 90 95 93 100 107 107 102 95 96 102 103 104 100 89 79 71 77 88 104 121 293 287 269 260 266 268 264 266 273 281 289 288 278 258 244 238 238 241 247 254 263 273 287 303 313 319 321 323 327 326 324 322 322 324 327 332 335 336 337 337 336 335 334 333 331 329 326 324 321
249 248 253 263 283 315 309 296 308 303 292 313 356 23 31 41 54 83 98 92 94 99 103 107 98 94 95 68 24 8 17 22 19 18 342 260 252 287 312 313 308 298 282 276 274 272 276 282 281 275 256 239 234 235 240 251 265 281 296 308 315 319 323 326 328 327 324 322 320 322 327 333 338 339 339 339 339 339 337 335 332 329 326 324 322 320
246 255 257 264 274 300 309 304 311 310 302 309 311 303 345 42 43 52 83 94 100 94 87 176 95 88 15 334 333 334 337 343 340 326 306 296 295 304 316 316 313 301 284 282 281 272 270 275 274 269 253 233 228 232 242 259 280 296 304 309 315 322 327 327 327 326 324 322 322 327 334 339 340 340 340 341 340 338 335 331 328 326 325 323 321 320
231 253 258 259 267 308 330 328 331 333 323 322 308 284 335 20 19 24 62 82 74 63 71 268 20 59 10 333 330 332 332 330 326 314 303 298 299 300 301 305 303 278 271 279 281 267 262 264 262 259 246 226 223 230 242 266 286 293 296 306 320 324 323 325 328 329 328 327 330 336 338 338 338 339 340 340 338 334 332 330 329 328 327 325 323 321
211 237 264 278 308 335 340 336 340 346 347 350 335 304 9 18 7 12 47 71 59 36 240 226 288 274 248 300 314 323 322 321 317 305 301 303 303 300 298 296 284 261 262 271 271 257 254 254 250 247 235 215 216 229 248 276 285 289 300 320 325 322 324 330 334 334 334 336 337 337 334 333 336 338 339 338 337 335 334 334 333 333 331 329 327 326
222 227 272 318 342 332 320 330 340 348 358 2 358 16 36 33 12 9 27 38 35 338 251 234 249 249 239 263 288 305 306 309 310 305 307 320 327 321 315 300 272 263 266 266 258 249 249 247 242 240 225 203 209 232 262 280 284 300 321 328 326 327 332 338 341 341 340 339 335 330 328 331 335 338 339 340 340 340 339 339 338 337 336 334 333 332
262 247 266 316 341 315 287 312 344 356 7 0 12 75 74 65 34 18 22 5 345 317 278 257 251 246 252 270 277 289 301 307 310 308 314 332 348 346 339 317 275 265 267 265 251 242 243 241 238 231 210 193 207 240 267 279 295 319 325 328 331 336 340 344 347 343 337 333 328 326 327 332 336 339 342 344 343 343 343 342 342 340 339 337 337 337
238 253 274 294 315 310 278 290 323 354 15 0 60 106 134 130 109 86 16 320 313 316 293 275 262 253 269 295 282 277 294 302 300 304 321 344 357 359 359 343 289 261 260 259 244 235 235 233 225 211 194 189 211 249 271 285 310 322 326 334 338 341 346 350 347 338 330 327 325 325 330 336 340 342 344 345 345 345 345 343 342 341 340 339 339 339
231 253 261 281 300 308 276 267 288 306 332 323 143 149 184 177 172 183 215 262 288 317 299 283 281 270 279 298 287 274 287 295 292 296 318 344 357 6 13 0 314 272 249 244 231 224 222 215 202 192 187 196 233 263 279 295 312 326 337 341 340 345 351 350 344 335 329 327 327 330 336 341 342 343 344 345 345 346 345 343 341 341 341 341 340 339
244 247 237 261 285 281 253 240 275 289 285 288 296 283 240 203 204 214 226 252 272 304 298 290 290 287 290 294 285 280 288 294 296 298 314 336 350 3 11 359 329 286 236 221 207 201 200 196 195 195 197 228 260 274 289 300 315 338 345 342 343 350 354 349 344 338 333 332 333 337 340 341 342 342 344 345 346 346 344 342 342 342 342 341 341 339
245 253 239 239 250 244 236 225 234 265 261 299 333 323 290 220 203 209 221 248 261 280 290 288 285 287 291 290 286 288 292 294 298 303 314 328 335 342 346 336 330 292 221 207 197 193 193 200 216 223 234 260 270 277 295 307 329 350 347 342 348 355 353 351 348 344 339 336 336 337 338 338 340 342 344 346 346 343 341 341 343 343 342 342 341 340
253 269 261 218 212 227 232 225 226 269 285 322 336 321 300 285 253 224 234 249 253 267 282 288 292 288 281 286 292 297 295 292 294 301 309 316 315 312 306 299 315 278 213 205 205 208 208 214 236 253 261 265 261 278 304 321 344 354 347 345 353 356 353 353 353 349 340 333 333 336 337 339 341 343 344 344 343 340 340 342 344 344 344 344 342 340
256 266 270 251 226 238 239 229 228 272 303 317 318 314 300 287 286 276 265 261 254 264 274 284 294 291 284 290 298 302 301 296 295 298 302 305 303 295 288 279 267 234 207 206 209 218 222 225 249 267 266 256 260 296 319 337 351 351 345 345 351 354 353 353 353 346 334 329 333 337 339 341 344 344 344 342 340 340 342 344 346 346 346 345 343 341
263 258 263 261 249 250 254 251 247 263 281 292 297 302 289 271 271 284 286 281 277 278 271 260 275 284 291 296 299 302 305 304 302 299 297 296 293 286 283 275 250 221 211 213 213 221 229 233 251 263 257 247 280 317 332 344 351 346 339 342 349 351 351 350 346 337 329 330 336 339 340 343 346 345 343 340 340 342 344 346 347 348 347 346 343 341
257 252 257 263 260 254 259 268 261 249 251 262 276 284 283 272 269 284 291 292 292 286 276 265 268 276 284 295 301 306 307 306 303 296 290 287 283 276 273 271 250 223 215 217 216 219 226 232 242 246 242 262 313 329 335 343 347 339 332 340 348 348 347 344 337 331 331 335 339 342 344 346 346 344 342 341 343 345 346 347 348 349 348 347 345 343
251 250 253 258 262 260 258 258 252 243 235 236 251 262 271 276 274 276 283 289 294 290 284 281 277 277 282 294 303 308 306 303 299 290 284 281 275 267 261 261 245 222 214 214 214 216 221 227 227 223 232 287 317 326 332 336 336 329 327 335 343 343 341 337 332 332 334 338 342 346 348 347 345 344 344 344 346 346 347 348 349 349 348 347 346 346
246 246 248 250 258 261 260 252 247 249 243 237 249 257 259 266 272 275 277 282 286 282 283 288 284 284 290 298 303 304 302 300 295 287 281 275 270 262 254 250 237 217 210 207 209 212 217 218 210 207 247 294 303 314 322 321 317 316 321 331 338 339 336 333 333 335 337 340 344 348 349 346 345 346 346 346 347 347 347 349 349 349 348 347 347 347
244 239 242 245 253 262 268 267 260 258 256 251 255 259 257 262 275 279 280 282 282 278 280 287 286 290 298 303 301 301 301 300 293 284 276 268 263 257 246 237 222 206 200 197 201 205 208 205 199 208 267 284 290 303 306 301 301 307 318 330 336 335 332 330 332 334 337 341 346 349 347 345 346 348 348 347 347 347 348 349 348 347 346 347 347 347
248 242 239 241 246 256 263 265 265 266 271 271 267 268 274 283 287 288 286 284 283 285 286 284 283 292 302 306 304 306 307 304 293 279 268 260 254 244 227 213 198 190 190 189 189 193 195 192 195 227 258 267 279 288 289 291 296 305 319 330 333 331 327 326 327 331 337 344 348 348 345 345 348 349 348 348 348 348 348 348 347 346 346 347 347 346
244 243 241 243 248 253 255 256 261 268 276 280 279 280 284 287 286 283 278 274 275 285 291 284 283 294 304 309 314 319 322 319 307 281 263 251 232 211 197 187 177 176 182 181 178 180 184 189 206 232 245 254 265 273 284 291 295 306 319 326 327 325 322 322 324 328 336 345 347 346 344 345 348 348 348 349 348 348 348 347 346 345 346 347 347 347
242 244 243 246 249 249 249 251 255 264 272 278 280 279 276 277 278 275 269 264 263 273 283 288 292 299 306 314 326 332 333 336 334 297 252 218 188 175 172 168 164 168 173 171 170 175 185 200 217 230 236 240 248 262 278 284 290 303 315 320 320 319 317 319 322 328 336 343 345 345 345 346 347 348 348 348 348 348 347 346 346 345 346 347 348 349
244 246 244 246 245 242 244 248 251 257 262 263 263 263 263 267 272 270 262 260 264 269 278 291 299 305 314 323 333 340 342 349 2 7 169 160 158 158 158 156 155 160 164 165 171 183 197 212 225 232 233 232 236 251 266 275 286 300 310 312 313 312 313 317 322 329 336 341 342 343 345 345 346 347 347 347 347 348 347 346 345 345 347 349 350 351
248 248 247 246 243 241 241 243 244 245 244 242 244 249 256 261 261 258 257 261 267 271 278 294 306 317 328 329 333 345 352 358 21 70 132 142 147 149 150 152 151 153 162 173 186 198 210 223 233 235 232 231 237 248 259 270 285 298 304 306 307 307 310 315 321 328 334 338 340 341 343 344 345 345 346 346 346 347 346 345 344 345 348 351 352 352
248 244 242 241 239 236 231 227 230 232 234 235 238 244 248 246 244 248 253 256 262 276 297 321 329 331 335 338 340 347 356 4 33 113 141 145 150 151 154 160 163 169 181 192 201 210 219 228 233 233 231 232 240 250 260 271 285 295 300 302 303 304 308 314 320 327 332 334 336 339 341 343 344 344 344 344 345 346 345 344 344 347 350 353 353 351
242 234 232 232 231 227 223 221 224 230 237 242 241 237 235 236 241 247 246 244 284 330 346 4 350 334 336 349 351 350 358 9 28 126 155 168 169 167 176 189 195 199 201 204 211 217 224 229 232 232 233 235 243 254 265 276 287 295 298 300 302 304 308 313 319 325 328 330 333 337 340 341 342 342 342 342 344 344 343 342 344 348 352 354 353 351
235 230 229 232 236 231 228 231 234 239 252 253 232 214 221 228 232 235 239 56 37 18 10 10 354 335 337 347 347 345 352 0 7 23 190 195 194 190 200 213 218 220 219 219 221 223 225 228 232 235 236 241 249 261 272 282 291 295 297 299 301 304 308 312 316 321 323 327 331 335 338 340 340 339 339 340 342 342 341 342 345 350 353 354 353 351
234 235 226 232 260 253 231 239 246 251 254 248 228 203 208 216 204 143 49 41 38 23 14 13 0 348 347 346 341 335 332 340 347 276 235 223 220 216 213 219 225 230 230 228 228 226 223 224 229 234 239 246 254 263 272 280 287 291 294 298 302 305 308 311 314 317 320 325 330 333 336 337 336 335 336 338 340 339 340 342 347 351 353 353 352 351
220 219 195 193 268 238 223 238 249 250 245 235 220 206 202 195 124 65 35 22 29 15 9 13 5 358 358 354 346 333 309 294 261 238 226 217 221 225 223 224 228 231 233 234 235 234 229 226 228 232 239 247 254 262 270 279 285 289 294 299 304 306 308 310 312 314 318 324 328 331 332 333 332 332 334 336 337 337 339 343 348 350 352 352 351 351
197 192 177 140 92 150 192 224 201 218 229 219 204 204 205 191 57 40 0 344 4 0 359 6 359 352 356 2 4 0 337 296 265 253 245 234 230 233 236 238 240 240 241 242 243 243 240 238 237 241 247 255 264 273 282 286 289 293 298 302 304 305 305 307 308 310 316 322 325 327 329 329 329 329 332 334 334 336 340 344 347 349 350 351 351 351
202 200 205 235 245 189 224 269 124 154 193 198 177 197 226 273 341 342 298 308 334 348 353 353 345 338 342 357 11 21 29 6 298 277 269 260 252 248 248 250 251 251 250 249 247 248 247 247 250 255 260 267 274 282 287 288 292 298 302 302 301 301 302 303 305 308 313 319 321 322 325 326 325 327 330 332 333 336 340 343 346 348 349 349 350 351
221 224 234 254 262 254 256 270 263 224 216 187 160 188 224 245 275 293 300 327 354 358 349 336 325 325 335 349 2 12 20 18 345 296 274 265 260 255 252 253 254 255 255 253 251 250 250 251 253 256 259 264 269 274 279 286 295 300 299 296 295 296 298 300 302 305 311 316 317 319 322 322 322 325 328 330 333 336 339 342 344 346 347 348 350 351
238 237 243 254 260 257 253 258 264 266 261 242 209 209 228 234 221 218 278 2 50 22 339 318 320 341 346 347 353 359 3 4 355 324 287 273 268 264 262 260 258 258 257 255 253 251 251 250 250 252 256 260 265 270 278 289 297 296 292 290 291 294 297 298 299 303 308 312 314 316 318 318 319 324 328 330 333 335 338 340 342 344 346 348 349 350
242 239 240 245 253 256 252 250 254 259 260 256 250 240 235 240 238 233 238 236 213 211 257 281 322 4 3 354 351 351 350 347 339 329 314 296 282 273 269 265 262 260 258 257 254 252 251 250 250 252 256 261 266 274 285 294 296 291 287 285 288 292 295 296 298 301 305 308 310 313 314 314 317 323 328 330 332 333 336 338 340 342 345 347 348 349
233 230 230 232 239 248 250 250 251 253 255 255 253 247 242 242 242 242 244 244 237 233 237 249 263 284 323 339 337 336 342 340 333 327 322 316 304 289 278 270 265 261 258 257 255 253 252 252 253 256 260 266 274 283 291 294 292 287 283 282 285 291 295 295 296 299 301 304 307 310 311 312 317 324 328 329 330 331 334 336 337 340 344 346 347 348
224 224 224 224 229 237 244 249 250 251 252 251 251 249 248 246 246 245 246 247 246 245 245 249 253 256 260 274 289 301 317 328 328 328 326 321 314 305 294 284 277 272 267 263 261 260 259 260 262 265 270 276 282 286 288 289 287 283 280 280 286 292 294 293 294 296 298 301 305 307 307 310 318 325 328 327 326 328 332 333 335 339 343 345 345 347
220 224 224 221 225 232 238 244 245 244 246 249 249 248 248 248 248 248 248 249 250 250 249 251 252 254 256 258 265 274 284 293 304 317 324 324 320 314 306 298 291 284 276 271 268 267 267 269 270 273 276 279 281 282 283 283 282 279 278 281 288 293 292 291 292 294 297 300 303 304 305 311 320 326 325 324 324 326 329 331 334 338 342 343 344 346
222 224 223 219 221 229 234 237 236 233 236 242 244 244 246 251 253 253 252 252 252 252 252 253 255 257 259 260 262 266 272 279 287 297 306 315 319 318 314 307 300 292 284 276 272 269 269 270 272 274 276 277 278 278 278 278 277 276 279 284 291 292 290 290 291 293 296 298 300 302 305 313 322 324 322 321 322 324 326 329 333 337 340 341 342 345
226 226 227 224 222 227 232 234 232 231 235 242 247 253 262 269 272 270 265 261 258 257 257 256 257 259 261 262 263 266 269 273 279 286 292 299 305 310 312 311 306 300 293 285 278 273 271 272 273 274 275 275 275 275 275 274 275 278 283 289 291 291 290 290 291 292 294 296 298 302 308 315 320 320 319 319 320 321 324 327 331 336 338 339 341 344
230 233 236 236 232 230 234 237 237 238 243 253 263 272 278 282 285 286 284 279 275 272 269 267 265 265 264 264 265 266 269 271 274 278 283 288 293 297 301 303 305 304 301 296 290 283 279 277 276 276 276 275 275 274 274 274 277 282 287 290 290 290 290 290 290 291 292 294 298 303 309 314 317 317 317 318 318 319 322 325 330 334 336 337 340 343
231 236 240 243 243 241 243 246 246 245 251 263 273 279 282 284 287 290 291 291 291 292 292 290 286 281 277 275 274 273 272 273 273 274 277 280 284 287 290 293 296 298 300 301 298 294 291 287 284 281 278 277 276 275 275 277 280 285 288 289 290 290 290 290 290 290 292 295 299 304 309 311 312 314 315 316 317 318 320 324 328 332 334 335 338 341
232 235 239 244 248 251 254 257 256 254 257 263 270 274 278 281 283 285 285 285 286 288 290 293 293 292 290 287 286 284 282 280 278 276 276 276 277 279 282 284 286 289 291 294 296 297 297 295 292 288 284 282 280 279 279 282 284 286 288 288 289 289 290 290 291 291 293 296 300 304 307 308 309 311 313 315 316 317 319 322 326 329 331 333 336 339
235 236 238 242 246 250 253 257 259 259 260 262 265 270 273 275 277 279 279 277 277 279 282 285 288 289 289 288 288 288 288 288 287 285 283 281 278 277 277 278 280 282 283 285 287 290 293 296 295 293 290 287 285 284 284 285 285 286 287 288 289 290 291 292 293 293 294 297 299 302 304 305 306 308 311 313 315 316 318 321 324 327 329 331 334 337
238 238 239 240 242 244 247 252 255 257 260 261 262 264 266 268 270 271 272 272 275 278 282 285 287 289 289 288 287 286 285 287 289 290 290 289 287 284 281 279 278 279 280 281 282 283 286 289 292 293 292 290 288 287 287 286 286 287 288 289 290 291 292 294 295 295 296 297 298 299 301 303 305 306 309 311 313 315 317 319 322 324 326 328 331 334
240 241 242 243 243 243 245 248 251 254 257 259 261 262 264 265 267 268 268 269 272 277 282 285 287 288 289 289 289 288 287 287 288 289 290 292 293 292 290 286 283 281 280 280 280 280 281 283 286 288 289 290 289 289 288 288 287 288 289 290 291 292 293 294 295 296 296 296 296 297 299 301 303 305 307 310 312 314 316 318 319 321 323 325 328 331
Height
5811 5811 5810 5809 5809 5809 5808 5807 5806 5805 5805 5804 5804 5804 5804 5804 5803 5803 5803 5803 5803 5802 5802 5801 5801 5802 5802 5802 5803 5804 5804 5804 5804 5804 5804 5805 5805 5806 5806 5807 5807 5807 5807 5808 5808 5809 5809 5809 5809 5809 5809 5809 5809 5809 5809 5810 5810 5811 5811 5812 5812 5813 5813 5812 5812 5811 5811 5810 5809 5808 5807 5806 5804 5803 5802 5801 5799 5798 5796 5795 5793 5792 5791 5789 5788 5787
5811 5811 5811 5810 5810 5809 5809 5808 5807 5806 5805 5805 5805 5805 5804 5804 5804 5804 5804 5804 5803 5803 5802 5802 5802 5802 5802 5802 5803 5804 5804 5804 5804 5805 5805 5806 5806 5807 5807 5808 5808 5808 5808 5809 5809 5809 5809 5809 5809 5809 5809 5810 5810 5810 5810 5810 5810 5811 5812 5812 5812 5812 5812 5812 5811 5811 5810 5809 5808 5807 5806 5804 5803 5802 5801 5800 5798 5797 5795 5794 5792 5791 5790 5788 5787 5785
5812 5811 5811 5811 5810 5809 5809 5808 5807 5806 5806 5805 5805 5805 5805 5805 5804 5804 5804 5804 5804 5804 5803 5803 5803 5803 5803 5803 5803 5804 5804 5804 5805 5805 5806 5806 5807 5807 5808 5808 5809 5809 5809 5809 5809 5810 5809 5809 5809 5810 5810 5810 5810 5810 5810 5810 5811 5811 5812 5812 5812 5812 5812 5811 5811 5810 5809 5808 5807 5806 5805 5803 5802 5801 5800 5799 5797 5796 5794 5793 5791 5790 5788 5787 5785 5783
5812 5811 5811 5811 5810 5809 5809 5808 5807 5807 5807 5806 5806 5806 5806 5805 5805 5804 5804 5804 5804 5804 5804 5804 5804 5804 5804 5804 5804 5804 5805 5805 5805 5806 5807 5807 5808 5808 5808 5809 5809 5809 5809 5809 5809 5810 5810 5810 5810 5810 5810 5810 5810 5810 5810 5810 5811 5811 5811 5812 5812 5812 5811 5811 5810 5809 5808 5807 5806 5805 5804 5803 5802 5800 5799 5798 5796 5795 5793 5792 5790 5789 5787 5785 5783 5782
5811 5811 5810 5810 5810 5809 5809 5809 5808 5808 5808 5807 5807 5807 5806 5806 5805 5805 5804 5805 5805 5805 5805 5805 5805 5805 5805 5805 5805 5806 5806 5806 5806 5807 5808 5808 5808 5809 5809 5809 5809 5809 5809 5809 5810 5810 5810 5810 5810 5810 5809 5809 5809 5810 5810 5810 5811 5811 5811 5811 5811 5811 5810 5810 5809 5808 5807 5806 5805 5804 5803 5802 5801 5799 5798 5796 5795 5793 5792 5790 5789 5787 5785 5784 5782 5780
5811 5810 5810 5810 5809 5810 5809 5809 5808 5808 5808 5808 5807 5807 5807 5806 5806 5805 5805 5805 5806 5806 5806 5806 5806 5806 5807 5807 5807 5807 5807 5807 5807 5808 5808 5809 5809 5809 5809 5809 5809 5809 5809 5809 5809 5810 5810 5810 5810 5809 5809 5809 5809 5809 5810 5810 5811 5811 5811 5811 5811 5810 5810 5809 5809 5808 5807 5806 5805 5804 5802 5801 5800 5798 5796 5795 5794 5792 5790 5789 5787 5785 5784 5782 5780 5779
5811 5810 5810 5810 5809 5810 5809 5809 5809 5809 5808 5808 5808 5808 5807 5807 5807 5806 5806 5806 5806 5807 5807 5807 5807 5808 5808 5808 5808 5808 5808 5808 5808 5808 5808 5809 5809 5809 5809 5809 5809 5809 5809 5809 5809 5809 5809 5809 5809 5809 5808 5808 5808 5809 5809 5810 5810 5811 5811 5811 5811 5810 5810 5809 5808 5807 5806 5805 5804 5802 5801 5800 5798 5797 5795 5794 5792 5791 5789 5787 5786 5784 5782 5781 5779 5777
5810 5810 5810 5810 5810 5810 5809 5809 5809 5809 5809 5808 5808 5808 5807 5807 5807 5807 5807 5807 5807 5807 5807 5807 5808 5808 5809 5809 5809 5809 5809 5809 5809 5809 5809 5809 5809 5809 5809 5809 5809 5809 5809 5809 5809 5809 5808 5808 5808 5808 5808 5808 5808 5809 5809 5810 5810 5810 5810 5810 5810 5809 5809 5808 5807 5806 5805 5804 5803 5801 5800 5798 5797 5795 5794 5792 5791 5789 5788 5786 5785 5783 5781 5780 5778 5776
5810 5810 5810 5810 5810 5809 5809 5809 5809 5809 5809 5809 5809 5808 5808 5808 5808 5808 5808 5808 5808 5808 5808 5808 5808 5808 5808 5809 5809 5809 5809 5809 5809 5809 5809 5809 5809 5809 5809 5809 5809 5809 5808 5808 5808 5808 5808 5808 5808 5808 5808 5808 5808 5809 5809 5809 5810 5810 5810 5810 5809 5808 5808 5807 5806 5805 5804 5803 5802 5800 5799 5797 5796 5794 5793 5792 5790 5789 5787 5786 5784 5782 5780 5778 5776 5774
5810 5810 5810 5810 5809 5809 5809 5808 5809 5809 5809 5809 5809 5808 5808 5808 5808 5808 5808 5808 5808 5808 5808 5808 5808 5808 5809 5809 5809 5809 5809 5809 5809 5809 5809 5809 5809 5809 5809 5808 5809 5808 5808 5807 5808 5807 5807 5807 5807 5808 5808 5808 5808 5809 5809 5809 5809 5809 5809 5809 5808 5808 5807 5806 5805 5804 5803 5802 5801 5799 5798 5796 5795 5794 5793 5791 5790 5789 5787 5786 5784 5782 5779 5777 5775 5773
5810 5810 5809 5809 5809 5809 5808 5808 5808 5808 5808 5808 5808 5808 5808 5809 5809 5809 5809 5809 5809 5809 5809 5808 5808 5808 5809 5809 5808 5808 5808 5808 5808 5808 5808 5808 5808 5808 5808 5808 5808 5808 5807 5807 5807 5807 5807 5807 5807 5807 5808 5808 5808 5808 5809 5809 5809 5809 5809 5808 5808 5807 5806 5806 5805 5804 5802 5801 5800 5799 5797 5796 5795 5794 5792 5791 5790 5788 5787 5785 5783 5781 5778 5776 5773 5771
5809 5809 5809 5809 5809 5809 5808 5808 5808 5808 5808 5808 5808 5808 5809 5809 5809 5810 5810 5809 5809 5809 5809 5809 5809 5809 5809 5809 5808 5808 5808 5808 5808 5808 5808 5808 5808 5808 5807 5807 5807 5807 5807 5807 5806 5806 5806 5806 5807 5807 5807 5807 5808 5808 5808 5809 5809 5809 5808 5808 5807 5807 5806 5805 5804 5803 5801 5801 5799 5798 5797 5796 5795 5794 5792 5791 5789 5787 5786 5784 5781 5779 5777 5774 5772 5769
5809 5809 5809 5809 5809 5809 5808 5808 5808 5808 5808 5808 5808 5808 5809 5809 5809 5810 5810 5809 5809 5809 5809 5809 5809 5808 5809 5809 5808 5808 5808 5808 5808 5807 5807 5808 5807 5807 5807 5807 5806 5806 5806 5806 5806 5806 5806 5806 5806 5807 5807 5807 5808 5808 5808 5808 5808 5808 5808 5807 5807 5806 5805 5804 5803 5802 5801 5800 5799 5798 5797 5796 5794 5793 5791 5790 5788 5786 5784 5782 5780 5777 5775 5772 5770 5767
5809 5809 5809 5809 5809 5809 5808 5808 5808 5807 5807 5808 5808 5808 5809 5810 5810 5810 5810 5809 5809 5809 5809 5809 5809 5809 5809 5809 5808 5808 5808 5808 5807 5807 5807 5807 5807 5806 5806 5806 5806 5806 5806 5806 5805 5805 5805 5805 5806 5806 5807 5807 5807 5808 5808 5808 5808 5808 5807 5807 5806 5805 5804 5803 5802 5801 5800 5800 5799 5798 5796 5795 5794 5792 5790 5789 5787 5785 5782 5780 5778 5775 5773 5770 5768 5766
5809 5809 5809 5809 5809 5808 5808 5808 5808 5807 5807 5808 5808 5808 5809 5809 5809 5810 5810 5809 5809 5809 5809 5808 5808 5809 5808 5808 5808 5808 5807 5807 5807 5807 5807 5807 5806 5806 5806 5806 5805 5805 5805 5805 5805 5805 5805 5805 5805 5806 5806 5807 5807 5807 5808 5808 5808 5808 5807 5806 5805 5804 5803 5803 5802 5801 5800 5799 5798 5797 5796 5794 5793 5791 5789 5787 5785 5783 5781 5778 5776 5774 5771 5769 5766 5764
5809 5809 5809 5808 5808 5808 5808 5808 5807 5807 5807 5808 5808 5808 5809 5809 5809 5809 5809 5809 5809 5809 5808 5808 5808 5808 5808 5807 5808 5807 5807 5807 5807 5806 5806 5806 5806 5806 5805 5805 5805 5805 5805 5805 5805 5805 5805 5805 5805 5805 5806 5806 5807 5807 5808 5808 5808 5807 5806 5805 5805 5804 5803 5802 5802 5801 5800 5799 5797 5796 5794 5793 5792 5790 5788 5786 5784 5781 5779 5777 5775 5773 5770 5768 5765 5763
5809 5809 5808 5808 5808 5808 5807 5807 5807 5807 5808 5808 5808 5809 5809 5809 5809 5809 5809 5809 5809 5809 5808 5808 5808 5808 5807 5807 5807 5807 5807 5806 5806 5806 5806 5806 5805 5805 5805 5805 5805 5805 5804 5804 5804 5804 5804 5804 5805 5805 5806 5806 5807 5807 5807 5808 5807 5806 5805 5805 5804 5803 5803 5802 5801 5800 5799 5798 5796 5795 5793 5792 5791 5789 5787 5784 5782 5779 5778 5776 5774 5771 5769 5767 5764 5762
5808 5808 5808 5808 5808 5807 5807 5807 5807 5807 5807 5808 5808 5808 5809 5809 5808 5809 5809 5809 5809 5809 5808 5808 5808 5808 5807 5807 5806 5806 5806 5806 5805 5805 5805 5805 5805 5804 5804 5804 5804 5804 5804 5804 5804 5804 5804 5804 5804 5805 5805 5806 5806 5807 5807 5807 5807 5806 5805 5804 5803 5803 5802 5802 5801 5800 5798 5797 5795 5794 5793 5792 5790 5787 5785 5783 5781 5779 5777 5775 5773 5771 5768 5766 5764 5762
5808 5808 5807 5807 5807 5807 5807 5807 5807 5807 5807 5807 5808 5808 5808 5808 5808 5808 5808 5808 5809 5809 5808 5808 5808 5807 5807 5805 5805 5805 5805 5805 5805 5804 5804 5804 5804 5804 5803 5803 5803 5804 5804 5804 5804 5804 5804 5804 5804 5805 5805 5806 5806 5806 5807 5807 5806 5805 5804 5803 5803 5802 5802 5801 5800 5799 5798 5796 5795 5794 5792 5791 5789 5786 5784 5782 5780 5779 5777 5775 5772 5770 5767 5765 5763 5761
5807 5807 5807 5807 5806 5806 5806 5807 5807 5807 5807 5807 5807 5807 5807 5807 5807 5807 5807 5808 5808 5808 5808 5807 5807 5806 5805 5804 5804 5804 5804 5804 5804 5803 5803 5803 5803 5803 5803 5803 5803 5803 5803 5803 5803 5803 5803 5803 5804 5804 5805 5805 5806 5806 5806 5806 5805 5804 5803 5803 5802 5802 5801 5801 5800 5799 5798 5796 5794 5792 5791 5789 5788 5786 5784 5782 5780 5778 5776 5774 5771 5769 5766 5764 5762 5759
5807 5807 5806 5806 5806 5806 5806 5806 5806 5806 5806 5806 5806 5806 5807 5807 5807 5807 5807 5807 5807 5807 5807 5807 5806 5805 5804 5804 5804 5803 5803 5803 5803 5802 5802 5802 5802 5802 5802 5802 5802 5802 5802 5802 5802 5803 5803 5803 5803 5804 5804 5805 5805 5805 5805 5805 5804 5803 5803 5802 5802 5801 5801 5800 5799 5799 5797 5795 5793 5792 5790 5788 5786 5785 5783 5781 5780 5777 5775 5773 5770 5768 5765 5763 5761 5759
5806 5806 5806 5806 5806 5805 5806 5806 5806 5806 5806 5806 5806 5806 5806 5806 5806 5806 5806 5806 5806 5806 5806 5806 5805 5804 5803 5803 5803 5802 5802 5801 5801 5801 5800 5801 5801 5801 5801 5801 5801 5801 5801 5801 5802 5802 5802 5803 5803 5803 5804 5804 5804 5804 5804 5804 5803 5803 5802 5802 5801 5801 5800 5799 5798 5797 5796 5794 5792 5791 5789 5787 5786 5784 5782 5780 5778 5776 5774 5772 5769 5767 5764 5762 5760 5757
5805 5805 5805 5805 5805 5805 5805 5805 5805 5805 5805 5805 5805 5805 5805 5805 5805 5806 5805 5805 5805 5805 5805 5805 5804 5803 5802 5802 5801 5801 5801 5800 5799 5799 5798 5799 5799 5799 5799 5799 5800 5800 5800 5800 5801 5801 5802 5802 5802 5803 5803 5803 5803 5803 5803 5803 5803 5802 5802 5801 5801 5800 5799 5799 5798 5796 5794 5793 5791 5790 5788 5786 5785 5783 5781 5779 5777 5775 5773 5771 5768 5766 5763 5761 5759 5756
5804 5805 5805 5805 5805 5804 5804 5804 5804 5804 5804 5804 5804 5805 5805 5805 5805 5805 5805 5804 5804 5804 5804 5804 5803 5802 5801 5801 5800 5800 5799 5798 5798 5797 5796 5796 5797 5797 5798 5798 5798 5799 5799 5799 5800 5800 5801 5801 5802 5802 5802 5803 5803 5803 5803 5803 5802 5802 5801 5801 5800 5799 5798 5798 5796 5795 5794 5792 5790 5789 5787 5786 5784 5782 5780 5778 5776 5774 5772 5770 5767 5765 5763 5760 5758 5755
5803 5803 5803 5804 5804 5804 5804 5804 5803 5803 5804 5804 5804 5804 5804 5804 5804 5804 5804 5803 5803 5803 5803 5803 5802 5801 5800 5800 5799 5798 5798 5797 5796 5795 5794 5794 5795 5795 5796 5796 5797 5797 5798 5798 5799 5799 5800 5801 5801 5802 5802 5802 5802 5802 5802 5802 5802 5802 5801 5800 5799 5799 5798 5796 5795 5794 5793 5791 5790 5788 5786 5785 5783 5781 5779 5777 5775 5773 5771 5769 5766 5764 5762 5760 5757 5754
5802 5802 5802 5802 5803 5803 5803 5803 5802 5802 5802 5803 5803 5803 5803 5803 5803 5803 5803 5802 5802 5802 5802 5801 5801 5800 5799 5799 5798 5797 5796 5795 5794 5793 5793 5793 5793 5794 5794 5795 5796 5796 5797 5797 5798 5799 5800 5800 5801 5801 5802 5802 5802 5802 5802 5801 5801 5801 5800 5799 5799 5798 5797 5795 5794 5793 5792 5790 5789 5787 5786 5784 5782 5780 5778 5776 5774 5772 5770 5768 5766 5764 5761 5759 5756 5754
5801 5801 5801 5801 5801 5802 5802 5801 5801 5801 5801 5802 5802 5802 5801 5801 5801 5802 5802 5802 5801 5801 5801 5800 5800 5799 5798 5797 5797 5796 5795 5794 5793 5792 5792 5792 5793 5793 5794 5794 5795 5796 5796 5797 5798 5798 5799 5800 5800 5801 5801 5801 5801 5801 5801 5800 5800 5799 5799 5799 5798 5797 5796 5795 5793 5792 5791 5790 5788 5787 5785 5783 5781 5779 5778 5776 5774 5772 5770 5768 5765 5763 5760 5758 5755 5752
5799 5799 5800 5800 5800 5800 5800 5800 5801 5801 5801 5801 5801 5800 5800 5800 5800 5800 5801 5801 5800 5800 5800 5799 5799 5798 5797 5796 5796 5795 5794 5793 5792 5792 5792 5792 5792 5793 5793 5794 5795 5795 5796 5797 5798 5798 5799 5799 5800 5800 5801 5801 5801 5801 5800 5800 5799 5799 5798 5798 5797 5796 5795 5794 5793 5791 5790 5789 5787 5786 5784 5782 5781 5779 5777 5775 5773 5771 5769 5767 5765 5762 5759 5757 5754 5750
5798 5798 5799 5799 5799 5799 5799 5799 5800 5800 5800 5800 5799 5799 5799 5799 5799 5799 5800 5799 5799 5799 5799 5798 5798 5797 5796 5795 5795 5794 5794 5793 5792 5792 5792 5792 5792 5793 5793 5794 5795 5796 5796 5797 5797 5798 5798 5799 5799 5800 5800 5800 5800 5800 5800 5800 5799 5798 5798 5798 5797 5795 5794 5793 5792 5791 5789 5788 5786 5785 5783 5781 5780 5778 5776 5774 5773 5771 5769 5766 5764 5761 5758 5755 5752 5748
5797 5797 5798 5798 5798 5798 5798 5798 5798 5798 5798 5798 5798 5798 5798 5798 5798 5798 5798 5798 5798 5798 5798 5797 5797 5796 5795 5795 5794 5794 5793 5793 5792 5792 5792 5792 5793 5793 5794 5795 5795 5796 5797 5797 5797 5798 5798 5798 5799 5799 5799 5799 5799 5800 5800 5799 5799 5798 5798 5797 5796 5795 5793 5792 5791 5790 5788 5787 5786 5784 5782 5781 5779 5777 5776 5774 5772 5770 5768 5766 5763 5760 5757 5753 5750 5747
5796 5796 5797 5797 5797 5797 5797 5797 5797 5797 5797 5797 5797 5798 5798 5798 5797 5797 5797 5797 5797 5797 5797 5796 5796 5795 5794 5794 5794 5793 5793 5793 5793 5792 5792 5793 5793 5794 5794 5795 5795 5796 5796 5796 5797 5797 5798 5798 5798 5798 5799 5799 5799 5799 5799 5799 5798 5798 5797 5796 5795 5794 5793 5791 5790 5789 5787 5786 5785 5783 5782 5780 5778 5777 5775 5773 5771 5769 5767 5765 5762 5759 5755 5752 5749 5746
5795 5796 5796 5796 5796 5796 5796 5796 5796 5796 5796 5796 5797 5797 5797 5796 5796 5796 5796 5796 5796 5796 5796 5795 5795 5794 5794 5794 5793 5793 5793 5793 5793 5792 5793 5793 5793 5794 5794 5794 5795 5795 5795 5796 5796 5797 5797 5797 5798 5798 5798 5798 5798 5798 5798 5798 5797 5797 5796 5795 5794 5793 5792 5791 5789 5788 5787 5785 5784 5782 5781 5779 5777 5776 5774 5772 5771 5768 5766 5764 5761 5757 5754 5750 5748 5745
5795 5795 5795 5796 5796 5796 5796 5795 5795 5795 5796 5796 5796 5796 5796 5796 5796 5796 5796 5796 5795 5795 5795 5795 5794 5794 5794 5793 5793 5793 5793 5793 5793 5793 5793 5793 5793 5794 5794 5794 5794 5795 5795 5795 5796 5796 5796 5797 5797 5797 5798 5798 5798 5797 5797 5797 5796 5796 5795 5794 5793 5792 5791 5790 5788 5787 5786 5784 5783 5781 5780 5778 5777 5775 5773 5772 5770 5768 5765 5763 5759 5756 5752 5749 5747 5744
5794 5795 5795 5795 5795 5795 5795 5795 5795 5795 5795 5795 5795 5795 5795 5795 5795 5795 5795 5795 5795 5794 5794 5794 5794 5794 5794 5793 5793 5793 5793 5793 5793 5793 5793 5793 5793 5793 5794 5794 5794 5794 5795 5795 5795 5795 5796 5796 5796 5796 5797 5797 5797 5797 5796 5796 5795 5795 5794 5793 5792 5790 5789 5788 5787 5786 5785 5783 5782 5780 5779 5777 5776 5774 5773 5771 5769 5767 5764 5761 5758 5754 5751 5748 5746 5743
5794 5794 5794 5795 5795 5795 5795 5795 5795 5795 5795 5795 5795 5795 5795 5795 5794 5794 5794 5794 5794 5794 5794 5794 5794 5794 5793 5793 5793 5793 5793 5793 5793 5793 5793 5793 5793 5793 5793 5794 5794 5794 5794 5794 5795 5795 5795 5795 5796 5796 5796 5796 5796 5796 5795 5795 5794 5793 5792 5791 5790 5789 5788 5787 5786 5785 5783 5782 5781 5779 5778 5776 5775 5773 5772 5770 5768 5766 5763 5760 5756 5753 5750 5748 5745 5742
5793 5794 5794 5794 5794 5794 5795 5795 5795 5795 5794 5794 5794 5794 5794 5794 5794 5794 5794 5794 5794 5794 5794 5794 5794 5794 5793 5793 5793 5793 5793 5792 5792 5792 5792 5793 5793 5793 5793 5793 5793 5793 5794 5794 5794 5794 5794 5794 5794 5795 5795 5795 5794 5794 5794 5793 5792 5791 5790 5789 5789 5788 5787 5786 5785 5784 5782 5781 5779 5778 5777 5775 5774 5772 5770 5769 5767 5764 5761 5758 5755 5752 5749 5747 5744 5740
5793 5793 5793 5794 5794 5794 5794 5794 5795 5794 5794 5794 5794 5794 5794 5794 5794 5794 5794 5794 5794 5794 5794 5794 5794 5794 5793 5793 5793 5793 5793 5792 5792 5792 5792 5792 5792 5792 5792 5793 5793 5793 5793 5793 5793 5793 5793 5793 5793 5793 5793 5793 5793 5792 5792 5791 5791 5790 5789 5788 5787 5787 5786 5785 5784 5782 5781 5780 5778 5777 5776 5774 5773 5771 5769 5767 5765 5763 5760 5757 5754 5751 5748 5745 5742 5739
5792 5792 5793 5793 5793 5794 5794 5794 5794 5794 5794 5794 5794 5794 5793 5793 5794 5794 5794 5794 5794 5794 5794 5794 5793 5793 5793 5793 5793 5793 5793 5792 5792 5792 5792 5792 5792 5792 5792 5792 5792 5792 5792 5792 5792 5792 5792 5792 5792 5792 5792 5792 5791 5791 5791 5790 5789 5788 5787 5787 5786 5785 5785 5783 5782 5781 5779 5778 5777 5776 5774 5773 5772 5770 5768 5766 5764 5761 5758 5756 5752 5750 5747 5744 5741 5738
5791 5791 5792 5792 5792 5793 5793 5793 5793 5793 5793 5793 5793 5793 5793 5793 5794 5794 5794 5794 5794 5794 5794 5793 5793 5793 5793 5793 5793 5792 5792 5792 5792 5792 5792 5792 5791 5791 5791 5791 5791 5791 5791 5791 5791 5791 5791 5791 5791 5790 5790 5790 5790 5790 5789 5788 5787 5787 5786 5786 5785 5784 5783 5782 5781 5779 5778 5777 5776 5774 5773 5772 5770 5768 5766 5764 5762 5760 5757 5754 5751 5748 5746 5743 5740 5736
5789 5790 5790 5790 5791 5791 5792 5792 5792 5792 5792 5792 5793 5793 5793 5793 5793 5793 5794 5794 5794 5794 5793 5793 5793 5793 5793 5792 5792 5792 5792 5792 5792 5792 5792 5791 5791 5790 5790 5790 5790 5790 5790 5790 5790 5790 5789 5789 5789 5789 5789 5788 5788 5788 5787 5786 5786 5785 5785 5784 5784 5783 5781 5780 5779 5778 5777 5775 5774 5773 5772 5771 5769 5767 5764 5762 5760 5758 5755 5753 5750 5747 5744 5741 5738 5735
5788 5788 5789 5789 5789 5790 5790 5790 5791 5791 5791 5791 5792 5792 5792 5793 5793 5793 5793 5793 5793 5793 5793 5793 5792 5792 5792 5792 5792 5791 5791 5791 5791 5791 5791 5790 5790 5790 5790 5789 5789 5789 5789 5789 5789 5788 5788 5788 5788 5787 5787 5787 5786 5785 5785 5784 5784 5784 5784 5783 5782 5781 5780 5779 5777 5776 5775 5774 5773 5772 5770 5769 5767 5764 5762 5760 5758 5756 5754 5751 5749 5746 5743 5740 5737 5734
5786 5787 5787 5787 5788 5788 5788 5789 5789 5789 5789 5789 5790 5790 5791 5791 5791 5791 5791 5792 5792 5792 5792 5792 5792 5792 5792 5792 5792 5791 5791 5791 5790 5790 5790 5789 5789 5789 5789 5788 5788 5788 5788 5787 5787 5787 5787 5786 5786 5786 5785 5785 5784 5784 5783 5783 5783 5783 5782 5781 5780 5779 5778 5777 5776 5775 5774 5772 5771 5770 5769 5767 5765 5762 5760 5758 5757 5755 5752 5750 5747 5744 5741 5738 5735 5732
5785 5785 5785 5786 5786 5786 5787 5787 5788 5787 5787 5787 5788 5788 5789 5789 5789 5789 5790 5790 5790 5790 5790 5791 5791 5791 5791 5791 5791 5791 5790 5790 5790 5790 5789 5789 5788 5788 5788 5787 5787 5787 5786 5786 5786 5786 5785 5785 5785 5784 5784 5783 5783 5782 5782 5782 5781 5781 5780 5779 5778 5777 5776 5775 5774 5773 5772 5771 5769 5768 5767 5765 5762 5760 5758 5757 5755 5753 5750 5748 5745 5743 5740 5737 5734 5731
5783 5783 5784 5784 5785 5785 5785 5786 5785 5785 5785 5785 5786 5786 5787 5787 5787 5788 5788 5788 5788 5789 5789 5789 5789 5789 5789 5790 5790 5790 5789 5789 5789 5789 5789 5788 5788 5788 5787 5787 5786 5786 5786 5785 5785 5784 5784 5784 5783 5783 5782 5782 5781 5781 5781 5780 5780 5779 5778 5777 5776 5775 5774 5773 5772 5771 5770 5769 5768 5767 5765 5762 5760 5758 5756 5755 5753 5751 5749 5746 5744 5741 5738 5735 5732 5729
5781 5782 5782 5783 5783 5783 5783 5783 5783 5783 5784 5784 5785 5786 5786 5786 5786 5787 5787 5787 5787 5787 5787 5788 5788 5788 5788 5788 5788 5788 5788 5788 5788 5788 5787 5787 5787 5787 5786 5786 5785 5785 5784 5784 5784 5783 5783 5782 5782 5781 5781 5780 5780 5779 5779 5778 5778 5777 5776 5775 5774 5773 5772 5771 5770 5769 5768 5767 5766 5764 5762 5760 5758 5756 5755 5753 5751 5749 5747 5744 5742 5739 5736 5733 5731 5727
5780 5781 5781 5781 5781 5781 5781 5781 5782 5782 5783 5784 5784 5785 5785 5785 5785 5785 5786 5786 5786 5786 5786 5786 5787 5787 5787 5787 5787 5787 5787 5786 5786 5786 5786 5786 5785 5785 5785 5784 5784 5783 5783 5783 5782 5782 5781 5781 5780 5780 5779 5779 5778 5778 5777 5776 5775 5774 5774 5773 5772 5771 5770 5769 5768 5767 5766 5765 5763 5762 5760 5758 5756 5754 5753 5751 5749 5747 5745 5742 5739 5737 5734 5731 5729 5725
5778 5779 5780 5780 5780 5780 5780 5780 5781 5782 5783 5783 5784 5784 5784 5784 5784 5784 5784 5784 5785 5785 5785 5785 5785 5785 5785 5785 5785 5785 5785 5785 5785 5784 5784 5784 5784 5783 5783 5783 5782 5782 5781 5781 5780 5780 5779 5779 5778 5778 5777 5776 5776 5775 5775 5774 5773 5772 5771 5770 5770 5769 5768 5767 5766 5765 5764 5762 5761 5759 5757 5755 5754 5752 5751 5749 5747 5745 5743 5740 5737 5735 5732 5729 5727 5724
5776 5777 5778 5778 5778 5779 5779 5779 5780 5781 5781 5782 5782 5781 5782 5782 5782 5782 5783 5783 5783 5783 5783 5783 5783 5783 5783 5783 5783 5783 5783 5783 5782 5782 5782 5782 5782 5781 5781 5781 5780 5780 5780 5779 5779 5778 5778 5777 5777 5776 5775 5774 5774 5773 5772 5771 5770 5770 5769 5768 5767 5767 5766 5765 5764 5762 5761 5759 5758 5756 5755 5753 5752 5750 5748 5747 5745 5742 5740 5738 5735 5732 5730 5728 5725 5722
5773 5774 5775 5775 5776 5777 5777 5777 5778 5778 5779 5779 5779 5779 5779 5779 5779 5780 5780 5780 5780 5780 5780 5780 5780 5780 5780 5781 5781 5780 5780 5780 5780 5780 5780 5780 5779 5779 5779 5778 5778 5778 5777 5777 5777 5776 5776 5775 5775 5774 5773 5772 5771 5771 5770 5769 5768 5767 5767 5766 5765 5764 5763 5762 5761 5760 5758 5757 5755 5754 5752 5751 5749 5748 5746 5744 5742 5740 5738 5735 5733 5730 5728 5726 5723 5720
5769 5770 5771 5772 5773 5774 5774 5774 5775 5775 5776 5777 5777 5777 5777 5777 5777 5777 5778 5778 5778 5778 5778 5777 5778 5778 5778 5778 5778 5778 5778 5778 5777 5777 5777 5777 5777 5776 5776 5776 5775 5775 5774 5774 5774 5774 5773 5773 5772 5772 5771 5770 5769 5768 5767 5766 5766 5765 5764 5763 5762 5761 5760 5759 5758 5757 5756 5754 5753 5751 5750 5748 5747 5745 5744 5742 5740 5737 5735 5733 5730 5728 5726 5724 5721 5718
5766 5767 5767 5768 5769 5770 5771 5771 5771 5772 5773 5773 5774 5774 5774 5774 5774 5775 5775 5775 5775 5775 5775 5775 5775 5775 5775 5775 5775 5775 5775 5775 5775 5774 5774 5774 5774 5774 5773 5773 5773 5772 5772 5771 5771 5771 5770 5770 5769 5769 5768 5767 5766 5765 5765 5764 5763 5762 5761 5760 5759 5758 5757 5756 5755 5754 5753 5752 5750 5749 5747 5746 5744 5743 5741 5739 5737 5735 5732 5730 5728 5726 5724 5722 5719 5716